Location: Newark
(50.4348°N, 30.5552°E)
Time: 04:08:20
(UTC+00:00)

Altair - Pass Details

Date: 24 January 2020
Orbit: 1502 x 1682 km, 47.2° (Epoch: 18 February)

Event Time Altitude Azimuth Distance (km) Brightness Sun altitude
Rises 14:30:49 0° 287° (WNW) 4,926 10.8 -0.1°
Reaches altitude 10° 14:35:20 10° 271° (W) 3,916 10.8 -0.8°
Maximum altitude 14:41:19 18° 233° (SW) 3,281 10.9 -1.6°
Drops below altitude 10° 14:47:13 10° 195° (SSW) 3,830 10.3 -2.4°
Sets 14:51:36 0° 178° (S) 4,777 10.5 -3.0°
